Torna al catalogo

FENGYUN 1C DEB

AttivoPO
NORAD 30833·DEBRIS·🇨🇳 China

Lanciato May 10, 1999 da Taiyuan Satellite Launch Center

Loading…

Prossimi Passaggi (prossime 24 ore)

TLE

In scadenzaSource: Space-Track

Epoca: Sep 4, 2026, 17:44 UTC

1 30833U 99025AVT 26247.73899226  .00000292  00000-0  14080-3 0  9998
2 30833  99.8691  72.3236 0032809 152.2923 208.0010 14.27252177682050

Traccia FENGYUN 1C DEB in tempo reale con AllMySat

Download on the App Store